Chatham, MA

5:14 PM EDT on May 28, 2017 (GMT -0400)
Chatham Municipal

Weather History for KCQX - October, 2010

Change the Weather History Date:

Sunday, October 24, 2010

  Actual Average Record
Temperature  
Mean Temperature 46 °F -  
Max Temperature 55 °F 55 °F 66 °F (1996)
Min Temperature 39 °F 42 °F 30 °F (2008)
Degree Days  
Heating Degree Days 18    
Moisture  
Dew Point 41 °F    
Average Humidity 73    
Maximum Humidity 86    
Minimum Humidity 59    
Precipitation  
Precipitation 0.00 in - - ()
Sea Level Pressure  
Sea Level Pressure 30.16 in    
Wind  
Wind Speed 2 mph (ESE)    
Max Wind Speed 8 mph    
Max Gust Speed -    
Visibility 10 miles    
Events Rain    
Averages and records for this station are not official NWS values.
T = Trace of Precipitation, MM = Missing Value Source: NWS Daily Summary

Daily Weather History Graph

Daily Weather History Graph

Search for Another Location

Airport or City:

Trip Planner

Search our weather history database for the weather conditions in past years. The results will help you decide how hot, cold, wet, or windy it might be!

Date:

Astronomy

Oct. 24, 2010 Rise Set
Actual Time 7:02 AM EDT 5:45 PM EDT
Civil Twilight 6:33 AM EDT 6:13 PM EDT
Nautical Twilight 6:01 AM EDT 6:46 PM EDT
Astronomical Twilight 5:29 AM EDT 7:18 PM EDT
Moon 6:22 PM EDT (10/24) 8:43 AM EDT (10/24)
Length of Visible Light 11h 39m
Length of Day
10h 42m
Full, 97% of the Moon is Illuminated
Oct 24
Full
Oct 30
Last Quarter
Nov 6
New
Nov 13
First Quarter
Nov 21
Full

Hourly Weather History & Observations

Time (EDT) Temp. Dew Point Humidity Pressure Visibility Wind Dir Wind Speed Gust Speed Precip Events Conditions
12:52 AM 42.1 °F 37.0 °F 82% 30.18 in 10.0 mi Calm Calm - N/A   Clear
1:52 AM 39.9 °F 36.0 °F 86% 30.18 in 10.0 mi Calm Calm - N/A   Clear
2:52 AM 45.0 °F 35.1 °F 68% 30.19 in 10.0 mi Calm Calm - N/A   Clear
3:52 AM 46.0 °F 35.1 °F 66% 30.18 in 10.0 mi Calm Calm - N/A   Partly Cloudy
4:52 AM 45.0 °F 36.0 °F 71% 30.19 in 10.0 mi Calm Calm - N/A   Overcast
5:52 AM 44.1 °F 37.0 °F 76% 30.20 in 10.0 mi Calm Calm - N/A   Mostly Cloudy
6:52 AM 45.0 °F 37.9 °F 76% 30.20 in 10.0 mi Calm Calm - N/A   Overcast
7:52 AM 46.0 °F 37.9 °F 73% 30.21 in 10.0 mi Calm Calm - N/A   Overcast
8:52 AM 48.0 °F 39.0 °F 71% 30.22 in 10.0 mi Calm Calm - N/A   Overcast
9:52 AM 50.0 °F 39.9 °F 68% 30.23 in 10.0 mi NE 3.5 mph - N/A   Overcast
10:52 AM 51.1 °F 39.0 °F 63% 30.21 in 10.0 mi ESE 4.6 mph - N/A   Overcast
11:52 AM 53.1 °F 39.0 °F 59% 30.20 in 10.0 mi Variable 4.6 mph - N/A   Overcast
12:52 PM 52.0 °F 39.0 °F 61% 30.19 in 10.0 mi SE 5.8 mph - N/A   Overcast
1:52 PM 52.0 °F 42.1 °F 69% 30.17 in 10.0 mi Variable 3.5 mph - 0.00 in Rain Light Rain
2:52 PM 52.0 °F 43.0 °F 71% 30.17 in 10.0 mi Calm Calm - 0.00 in   Overcast
3:52 PM 52.0 °F 44.1 °F 74% 30.15 in 10.0 mi Calm Calm - 0.00 in   Overcast
4:52 PM 52.0 °F 43.0 °F 71% 30.13 in 10.0 mi Calm Calm - N/A   Overcast
5:52 PM 51.1 °F 43.0 °F 74% 30.12 in 10.0 mi SE 4.6 mph - N/A   Partly Cloudy
6:52 PM 51.1 °F 44.1 °F 77% 30.12 in 10.0 mi ESE 3.5 mph - N/A   Mostly Cloudy
7:52 PM 52.0 °F 44.1 °F 74% 30.10 in 10.0 mi SE 5.8 mph - N/A   Overcast
8:52 PM 53.1 °F 45.0 °F 74% 30.10 in 10.0 mi SE 5.8 mph - N/A   Partly Cloudy
9:14 PM 53.6 °F 46.4 °F 77% 30.10 in 10.0 mi ESE 3.5 mph - N/A   Mostly Cloudy
9:52 PM 54.0 °F 46.0 °F 75% 30.12 in 10.0 mi ENE 3.5 mph - N/A   Overcast
10:52 PM 54.0 °F 46.9 °F 77% 30.07 in 10.0 mi ESE 8.1 mph - N/A   Overcast
11:00 PM 53.6 °F 48.2 °F 82% 30.07 in 10.0 mi East 6.9 mph - N/A   Overcast
11:52 PM 55.0 °F 48.9 °F 80% 30.10 in 10.0 mi ESE 3.5 mph - N/A   Overcast